Content
SEND FEEDBACK

Daily
Averages
Monthly
Summary
United States of America

STATEN ISLAND, NEW YORK


Home > North America > United States > New York
Elevation: 152 feet     Latitude: 40 35N     Longitude: 074 09W

WEATHER
 
SELECT A DAY
Number of Records: 189,642;   Date Range: 1/1/95 - 7/29/14
 
SHARE

PRINT THIS DATA

[ ← Previous Day ]
WEATHER ALMANAC - JANUARY 24, 2013
[ Next Day → ]
[ °C ]   °F
Weather ElementAverageHighLow
Temperature18.3 °F24.1 °F (12:51 pm)12 °F (3:51 am)
Dewpoint-1.8 °F5 °F (4:51 am)-9 °F (11:51 am)
Humidity43.7 %71 % (4:51 am)24 % (11:51 am)
Barometer30.27 in30.41 in (11:51 pm)30.14 in (2:51 am)
Wind Speed15.1 mph28.8 mph (1:51 pm)
Wind Gust40.3 mph (1:51 pm)
Weather ElementAverage
Visibility10 mi
Wind DirectionWNW (276.5 °)

Weather ElementTotal
Precipitation---
Heating Degree Days47 (Base 65)
Averaged from 23 records on January 24, 2013
WEATHER CONDITIONS BREAKOUT
WIND DIRECTION BREAKOUT
WEATHER BY HOUR - JANUARY 24, 2013
[ °C ]   °F
Local TimeTemperatureDewpointHumidityBarometerVisibilityWind DirectionWind SpeedGust SpeedPrecipitationEventsConditions
1:51 AM14.0 °F1.0 °F56 %30.15 in10.0 miNW (310°)3.5 mphMostly Cloudy
2:51 AM12.9 °F1.9 °F62 %30.14 in10.0 miNW (310°)4.6 mphPartly Cloudy
3:51 AM12.0 °F1.9 °F64 %30.14 in10.0 miNNE (30°)4.6 mphPartly Cloudy
4:51 AM12.9 °F5.0 °F71 %30.15 in10.0 miNNE (20°)5.8 mphMostly Cloudy
5:51 AM14.0 °F3.0 °F62 %30.17 in10.0 miNorth (350°)5.8 mphOvercast
6:51 AM12.9 °F3.0 °F65 %30.19 in10.0 miNorth (10°)9.2 mphScattered Clouds
7:51 AM14.0 °F3.0 °F62 %30.20 in10.0 miNorth (350°)9.2 mphScattered Clouds
8:51 AM17.1 °F1.9 °F52 %30.22 in10.0 miNorth (350°)11.5 mphScattered Clouds
9:51 AM19.0 °F0.0 °F43 %30.24 in10.0 miNorth (350°)13.8 mphScattered Clouds
10:51 AM21.9 °F-5.1 °F30 %30.25 in10.0 miNW (310°)18.4 mph21.9 mphScattered Clouds
11:51 AM23.0 °F-9.0 °F24 %30.24 in10.0 miNW (320°)23.0 mph32.2 mphPartly Cloudy
12:51 PM24.1 °F-8.0 °F24 %30.24 in10.0 miNW (310°)24.2 mph34.5 mphPartly Cloudy
1:51 PM24.1 °F-7.1 °F25 %30.24 in10.0 miNNW (330°)28.8 mph40.3 mphScattered Clouds
2:51 PM24.1 °F-6.0 °F27 %30.27 in10.0 miNW (320°)25.3 mph35.7 mphScattered Clouds
3:51 PM24.1 °F-5.1 °F28 %30.30 in10.0 miNW (310°)16.1 mph29.9 mphPartly Cloudy
4:51 PM21.9 °F-4.0 °F32 %30.32 in10.0 miNW (320°)21.9 mph28.8 mphPartly Cloudy
5:51 PM21.0 °F-2.9 °F35 %30.35 in10.0 miWNW (300°)17.3 mph26.5 mphPartly Cloudy
6:51 PM19.9 °F-4.0 °F35 %30.38 in10.0 miWNW (290°)18.4 mph32.2 mphClear
7:51 PM19.0 °F-2.9 °F38 %30.39 in10.0 miWNW (300°)20.7 mph27.6 mphClear
8:51 PM18.0 °F-2.0 °F41 %30.38 in10.0 miWNW (290°)20.7 mph35.7 mphClear
9:51 PM18.0 °F-0.9 °F44 %30.39 in10.0 miWNW (300°)12.7 mph27.6 mphClear
10:51 PM17.1 °F-2.0 °F43 %30.40 in10.0 miWNW (290°)17.3 mph35.7 mphClear
11:51 PM16.0 °F-2.9 °F43 %30.41 in10.0 miWNW (290°)13.8 mph20.7 mphClear
Hourly data recorded from KEWR, located miles away from Staten Island, New York







STORIES FROM OUR PARTNERS